Theta_e
294 293 293 293 292 293 294 294 287 296 295 297 298 296 298 299 299 299 299 300 300 300 299 300 300 300 301 301 302 302 302 301 302 302 303 305 308 312 312 314 314 313 313 311
293 293 292 292 291 293 294 294 293 293 294 287 287 297 298 298 297 300 300 300 300 300 300 301 300 301 301 302 302 302 303 302 302 302 305 305 308 306 305 311 312 312 315 312
294 292 292 291 291 293 294 293 286 294 296 296 295 294 296 298 299 299 299 300 300 300 301 301 300 301 302 302 303 305 305 302 301 301 305 303 302 302 302 309 307 308 309 307
292 292 291 291 292 292 293 293 289 294 289 292 296 296 296 296 297 299 299 300 301 301 302 301 299 300 303 303 304 304 303 302 303 302 303 303 302 302 302 302 304 305 303 305
292 291 291 291 293 293 293 293 292 294 295 294 294 295 296 297 298 299 300 301 301 301 303 301 301 302 303 303 303 303 303 304 303 303 303 303 303 303 303 303 303 302 302 302
291 291 292 291 292 293 293 293 293 293 293 292 293 293 296 298 301 300 300 301 301 302 302 301 302 302 302 302 302 302 302 303 303 301 303 303 302 302 303 302 302 302 302 303
291 291 293 291 292 293 293 293 293 294 293 294 295 295 297 299 299 300 300 300 301 301 301 302 301 301 301 301 301 301 302 303 301 303 303 301 301 302 302 304 304 307 303 307
292 292 293 292 291 292 293 292 293 293 289 294 295 298 297 298 298 299 299 299 299 301 301 297 300 299 300 300 299 300 301 302 298 298 302 300 300 301 306 310 310 310 308 313
292 292 293 293 292 292 293 293 293 293 294 293 296 296 296 298 297 297 298 298 299 301 295 295 299 300 301 298 300 301 301 301 302 300 301 299 302 307 307 307 309 311 311 312
292 292 293 293 293 293 294 293 293 293 295 295 295 295 296 297 297 295 297 298 300 299 291 297 298 300 301 302 301 296 304 304 303 301 297 301 303 304 307 306 311 309 311 311
292 292 293 294 294 294 294 293 293 293 293 294 294 294 295 295 296 295 297 294 297 296 300 297 299 301 303 305 304 305 305 305 304 303 299 301 307 308 309 309 308 310 310 308
291 291 292 292 294 294 294 294 294 294 294 293 294 294 295 296 296 296 297 297 298 298 298 298 299 300 302 302 305 304 304 305 305 302 301 304 307 309 308 308 308 308 308 307
290 291 291 292 292 293 293 293 294 294 294 293 293 294 295 295 295 295 296 297 298 299 299 298 297 298 299 301 303 303 303 302 307 305 306 305 307 307 308 309 309 308 308 310
291 292 292 291 291 292 292 293 294 293 294 294 295 295 295 295 296 296 296 296 297 298 298 298 296 298 299 302 302 302 302 304 304 307 304 304 306 305 306 306 307 307 308 307
290 290 291 291 291 292 293 293 293 294 294 292 294 293 294 295 296 295 296 297 296 296 298 299 299 299 300 299 301 304 304 304 304 304 303 303 304 305 306 307 307 306 306 305
290 291 291 291 292 293 294 294 294 294 294 294 294 295 294 295 296 297 299 297 297 297 298 298 299 300 301 302 302 303 302 303 304 303 304 305 307 306 306 306 304 304 304 302
290 292 292 292 293 294 295 295 294 294 294 295 294 293 297 297 297 297 298 299 298 297 297 298 298 299 300 300 299 300 299 301 302 305 306 306 306 304 305 307 306 303 303 300
292 292 293 294 294 294 295 295 296 295 294 294 294 294 297 297 298 300 300 299 299 299 299 299 300 300 300 302 300 297 296 299 302 300 302 302 303 304 304 303 303 303 302 300
294 294 294 295 294 295 296 295 295 295 295 294 294 295 296 300 301 300 301 301 300 300 299 300 301 301 302 300 297 294 293 294 293 296 297 299 299 300 301 301 302 301 299 297
296 295 294 295 296 296 295 296 296 295 295 296 295 296 294 300 301 301 300 299 299 301 301 301 301 301 296 295 293 292 291 292 292 292 293 292 292 295 296 297 298 298 297 296
296 295 296 296 296 295 295 294 294 295 295 295 296 297 295 298 298 298 299 297 298 299 299 301 302 301 295 292 292 290 289 289 289 288 288 288 288 290 292 295 296 296 295 294
297 297 296 296 296 296 295 294 294 296 296 296 296 297 297 299 301 297 298 298 294 297 299 302 301 293 290 290 289 288 288 287 287 287 286 288 289 289 290 291 293 293 293 293
296 297 298 297 296 297 294 295 297 296 295 296 298 298 298 299 300 297 298 299 295 295 296 300 294 290 289 288 288 287 286 286 286 286 287 287 288 288 289 290 290 290 290 290
298 298 298 297 295 296 294 295 296 297 297 299 300 298 300 300 295 295 296 294 297 299 297 295 289 289 288 287 286 286 285 285 285 285 285 285 285 286 286 287 287 287 287 287
296 297 296 295 294 296 297 298 297 297 298 300 299 299 299 297 294 298 294 298 299 295 289 284 287 287 287 286 286 285 284 283 283 283 284 284 284 284 284 284 284 284 284 283
292 292 294 295 296 294 295 296 296 297 299 299 299 294 290 296 291 298 297 297 293 284 283 287 286 286 285 285 284 284 283 282 282 281 281 281 281 281 281 281 281 281 281 281
290 287 289 291 290 289 290 291 293 296 298 297 296 298 291 292 296 292 288 282 282 286 287 286 285 285 284 284 283 283 282 281 281 280 280 280 279 279 279 280 279 279 279 279
Wind_Speed
8 10 9 9 7 7 6 2 2 3 5 0 3 2 3 4 9 16 10 7 9 12 13 10 12 9 2 14 9 8 5 1 3 2 4 1 4 4 3 3 4 2 3 5
8 8 8 8 8 7 2 1 3 5 7 1 3 4 6 8 12 6 3 4 7 8 6 5 7 3 1 12 6 5 4 1 2 2 4 7 5 2 4 4 4 5 5 5
9 9 10 9 6 6 3 1 2 2 3 4 2 2 5 4 7 13 14 6 10 13 10 8 10 2 1 4 4 15 5 3 4 3 2 2 2 1 4 0 1 3 5 15
10 10 11 10 7 7 6 5 4 2 3 3 3 3 6 13 7 6 15 4 8 3 5 12 8 1 2 3 6 5 3 3 1 3 5 3 4 7 3 6 9 6 12 16
10 9 7 9 8 9 10 3 2 1 4 9 3 4 4 11 12 8 7 6 9 9 5 2 4 1 3 3 2 3 4 2 2 4 4 4 8 10 11 11 13 13 17 21
13 13 11 10 10 12 9 9 10 5 5 3 0 3 5 7 9 7 4 5 7 7 10 11 8 7 7 6 4 4 2 3 2 4 1 5 9 10 10 7 10 9 14 16
13 12 11 10 13 14 15 11 7 4 3 4 4 8 14 14 15 6 14 10 7 6 12 9 8 10 15 11 11 11 6 4 3 3 1 6 5 8 9 12 15 15 16 12
14 13 13 13 14 15 15 16 14 4 3 7 9 9 8 13 14 5 4 9 12 13 6 4 5 4 3 5 8 9 10 3 1 2 5 10 13 8 2 6 10 12 8 5
15 14 12 14 15 16 15 16 14 10 5 4 7 6 11 3 4 5 5 15 12 5 2 3 1 3 2 5 7 4 9 9 7 3 3 5 4 4 4 3 10 3 1 1
16 15 13 14 14 17 14 14 14 14 8 15 10 3 4 4 4 3 6 13 9 10 2 1 2 3 3 3 3 3 3 3 13 9 3 7 7 7 9 1 5 12 1 1
17 15 13 13 17 19 17 16 15 16 7 19 22 22 12 13 8 2 9 8 3 3 4 2 2 3 2 3 7 5 3 2 2 4 3 7 2 7 1 2 18 10 1 1
20 16 14 13 18 16 16 17 16 16 20 13 17 23 18 17 15 14 5 4 2 2 2 1 2 3 3 3 3 1 3 3 1 5 5 3 11 6 6 6 13 6 4 4
19 18 17 17 15 13 16 15 13 13 17 24 26 26 14 14 17 23 11 5 5 3 2 1 2 5 2 2 2 4 3 4 1 2 2 9 15 16 7 8 9 15 8 1
21 21 18 17 17 18 17 18 16 15 5 4 9 9 14 13 13 13 20 29 15 5 5 4 2 3 4 2 4 7 3 6 7 2 3 11 8 16 20 25 23 16 10 3
21 23 22 19 19 18 16 17 19 19 15 4 10 27 20 16 21 26 22 21 22 22 7 3 2 4 3 3 2 3 2 5 3 3 8 8 15 25 21 8 7 7 3 4
21 18 19 19 19 20 17 11 21 23 21 5 3 9 21 19 15 13 13 20 17 16 5 4 5 6 4 3 2 5 19 24 21 5 6 12 11 9 7 10 11 10 10 9
22 19 19 21 22 20 15 6 4 17 21 4 4 6 5 6 5 13 15 14 13 10 6 7 5 5 4 2 3 13 21 16 21 19 6 10 16 9 10 11 12 7 9 10
20 21 21 19 21 21 21 12 4 11 20 4 3 4 6 6 4 4 7 8 14 10 6 4 4 3 5 3 4 10 19 16 15 20 14 11 9 11 7 6 7 9 9 9
21 20 18 16 21 13 24 15 7 19 10 6 4 2 3 3 3 4 6 8 2 5 3 3 5 3 2 5 7 10 13 11 16 15 11 11 13 14 11 10 11 10 8 7
18 20 14 9 12 12 26 11 9 14 9 7 5 7 3 3 6 3 2 4 2 2 4 5 2 2 11 9 7 8 11 14 16 15 18 18 17 16 15 14 11 8 5 5
28 14 8 29 32 16 10 5 4 4 3 8 7 19 4 6 2 3 2 1 1 0 2 2 2 2 3 7 8 9 13 15 11 9 9 9 9 11 11 10 9 9 6 5
25 18 34 26 7 6 5 4 3 5 5 7 6 8 15 5 5 3 1 1 1 4 1 3 3 2 6 7 9 11 15 15 12 12 11 11 10 9 9 9 8 5 5 3
38 17 8 8 5 5 7 8 4 4 5 10 9 3 8 7 4 3 2 2 4 1 1 0 2 3 6 9 10 13 13 13 14 13 11 11 10 8 8 7 6 5 4 3
7 8 7 4 5 5 4 3 4 8 5 18 18 4 3 4 2 2 3 3 1 2 2 2 1 4 7 8 10 12 13 15 15 14 13 12 12 10 8 6 6 5 4 3
5 5 5 4 4 3 6 7 6 1 8 21 9 5 3 1 3 1 2 3 3 1 3 2 1 4 8 9 10 11 12 14 14 13 10 9 10 10 9 7 5 3 2 2
4 5 2 5 4 2 4 7 5 4 12 11 5 3 3 1 4 3 2 2 4 2 1 2 2 5 8 9 10 11 12 13 13 12 11 11 9 8 8 6 4 1 1 4
3 4 9 8 12 8 4 4 3 4 4 2 3 4 5 1 2 2 3 3 2 4 3 4 6 7 9 9 10 10 12 12 11 12 12 11 10 8 6 4 2 1 2 4
Wind_Direction
277 281 296 305 312 311 325 63 356 137 25 26 223 227 234 301 302 299 299 289 281 273 287 280 268 248 325 345 341 341 336 93 304 281 307 160 131 123 104 144 1 298 240 269
271 277 288 288 285 290 315 266 280 274 271 152 273 275 281 288 289 273 273 272 264 290 285 320 271 238 16 352 345 331 317 309 343 322 33 18 48 77 55 150 156 232 286 279
258 279 285 285 264 271 221 244 2 283 191 242 227 285 278 269 276 269 257 253 277 272 264 251 273 246 94 1 317 308 292 240 173 219 114 168 251 303 331 196 191 273 250 290
267 290 282 245 238 240 214 196 235 253 286 294 265 317 288 287 283 267 262 269 235 293 245 261 257 207 351 286 347 3 34 280 228 250 233 247 261 285 249 228 236 225 263 262
259 270 269 236 237 228 212 199 209 266 272 287 276 275 261 274 291 261 269 248 312 306 256 222 269 191 157 219 357 19 340 283 334 285 240 248 275 267 251 240 246 254 262 263
262 243 252 236 224 224 213 225 239 278 258 264 259 245 253 303 283 266 296 293 286 280 257 243 256 275 248 225 193 191 209 204 171 261 55 313 281 246 219 239 246 231 254 246
244 238 247 239 223 232 233 230 218 220 269 222 230 268 278 300 289 266 288 270 247 298 308 304 300 282 259 242 236 199 194 174 164 231 129 260 235 321 283 264 261 277 241 247
232 240 242 237 226 228 237 235 228 218 260 251 288 329 329 314 326 340 317 337 323 317 338 24 339 311 301 260 230 213 206 161 266 178 212 275 297 294 347 353 299 293 208 155
233 236 246 235 224 227 230 236 236 233 264 242 239 296 286 298 315 332 304 328 344 327 72 68 277 278 329 303 315 164 173 201 209 164 199 242 217 141 91 51 282 289 58 177
234 239 245 231 221 220 227 230 232 231 250 272 255 229 315 347 348 290 314 331 338 14 43 110 243 265 238 257 252 240 226 207 207 202 228 275 259 281 346 120 312 291 227 335
234 236 240 229 219 217 221 231 232 226 250 273 276 279 257 284 281 241 298 337 308 1 1 23 305 260 305 307 275 294 301 253 159 144 175 263 325 304 156 22 257 271 308 324
234 236 240 236 230 220 223 229 236 234 237 262 270 279 273 254 266 271 259 246 273 268 97 26 285 290 293 302 312 294 277 285 254 181 211 323 329 280 187 293 287 303 303 315
231 239 239 236 242 229 223 232 238 237 239 272 272 277 295 269 261 256 241 256 230 229 190 227 268 274 293 293 285 283 286 287 294 264 24 332 327 324 287 218 281 311 321 83
238 240 235 239 234 228 228 234 236 237 242 267 279 282 268 264 263 248 243 242 245 258 289 250 209 255 230 274 282 295 261 315 331 345 1 327 330 319 320 316 309 303 273 25
243 241 237 236 228 226 227 235 235 236 226 279 290 298 286 265 247 257 252 245 243 243 243 233 237 254 277 238 273 264 235 10 331 292 288 258 262 295 314 341 52 121 125 36
240 234 229 224 220 221 220 228 237 225 227 258 293 295 284 280 250 257 241 230 235 218 203 224 241 253 259 264 256 352 358 339 338 295 290 337 2 54 45 77 76 68 53 52
226 228 223 221 212 217 212 194 217 209 197 239 282 284 276 318 197 217 230 226 214 209 213 219 230 258 249 268 269 348 355 3 22 26 21 14 27 35 49 45 17 39 41 41
225 223 220 221 210 222 219 201 197 184 178 193 260 269 304 216 195 176 189 185 192 202 212 215 215 233 213 236 57 13 0 357 21 14 28 23 38 30 4 6 7 2 13 20
219 217 213 208 207 218 194 190 214 176 186 193 214 234 258 193 140 213 221 199 178 190 200 211 194 197 235 63 48 32 14 9 336 349 351 7 13 9 12 351 340 336 346 7
206 189 173 190 171 162 169 162 185 190 205 234 220 205 260 264 175 220 243 197 190 200 212 165 231 98 82 64 48 23 8 359 350 359 1 355 355 360 357 359 356 345 341 359
172 167 172 141 137 136 166 189 187 216 223 216 225 205 192 234 162 201 213 290 79 244 249 193 211 117 71 37 27 358 0 356 0 352 332 333 336 341 347 358 0 344 342 347
169 145 135 132 128 159 161 182 199 200 224 194 187 208 204 229 195 113 238 176 26 249 187 226 155 87 39 17 358 354 349 352 356 351 346 344 346 347 334 333 332 327 324 327
132 128 162 151 169 169 184 183 194 201 207 182 171 172 161 200 182 88 114 190 232 335 26 244 66 84 9 4 355 346 345 353 355 357 353 348 345 342 336 335 330 318 300 285
137 153 139 179 182 215 190 182 169 207 204 171 163 127 145 126 82 123 158 243 267 251 247 195 104 11 357 356 348 350 354 356 357 355 352 347 347 349 342 335 326 312 296 269
107 139 161 187 187 107 134 140 125 93 172 159 121 84 101 60 99 195 139 187 239 216 221 204 63 345 346 349 353 356 354 354 356 0 0 350 342 341 343 346 341 322 283 219
57 57 99 144 107 66 73 106 108 115 142 133 88 109 65 160 142 165 184 193 230 243 197 111 356 354 356 358 354 353 355 356 2 8 9 4 354 355 358 353 355 353 220 195
62 38 64 79 74 71 74 77 56 111 151 124 130 159 204 186 106 123 19 175 246 149 99 19 359 354 359 358 356 359 1 358 3 15 15 10 3 356 347 352 47 94 168 182